F5ODK-12 Weather Reports


Display with metric or nautical units.
time (UTC)temp
F
wind
direction
speed
MPH
gust
MPH
rain 1hr
in
rain 24hr
in
rain mn
in
humidity
%
barometer
mb
20260505150901 65 0.0 0.0 0.00 0.00 0.00 61 1012.2
20260505150400 66 0.0 0.0 0.00 0.00 0.00 61 1011.9
20260505140352 67 0.0 0.0 0.00 0.00 0.00 61 1011.5
20260505124841 66 0.0 0.0 0.00 0.00 0.00 63 1012.1
20260505124340 66 0.0 0.0 0.00 0.00 0.00 63 1012.1
20260505123839 64 0.0 0.0 0.00 0.00 0.00 65 1012.2
20260505123338 64 0.0 0.0 0.00 0.00 0.00 64 1012.2
20260505122838 64 0.0 0.0 0.00 0.00 0.00 65 1012.2
20260505122337 63 0.0 0.0 0.00 0.00 0.00 65 1012.3
20260505121836 64 0.0 0.0 0.00 0.00 0.00 64 1012.3
20260505121336 63 0.0 0.0 0.00 0.00 0.00 65 1012.2
20260505120835 63 0.0 0.0 0.00 0.00 0.00 65 1012.3
20260505120335 63 0.0 0.0 0.00 0.00 0.00 65 1012.4
20260505115833 63 0.0 0.0 0.00 0.00 0.00 65 1012.5
20260505115333 64 0.0 0.0 0.00 0.00 0.00 64 1012.5
20260505114833 63 0.0 0.0 0.00 0.00 0.00 65 1012.6
20260505114332 63 0.0 0.0 0.00 0.00 0.00 65 1012.6
20260505113831 63 0.0 0.0 0.00 0.00 0.00 65 1012.5
20260505113331 63 0.0 0.0 0.00 0.00 0.00 65 1012.5
20260505112830 63 0.0 0.0 0.00 0.00 0.00 65 1012.5
20260505112329 63 0.0 0.0 0.00 0.00 0.00 64 1012.6
20260505111828 63 0.0 0.0 0.00 0.00 0.00 64 1012.5
20260505111328 63 0.0 0.0 0.00 0.00 0.00 65 1012.7
20260505110827 64 0.0 0.0 0.00 0.00 0.00 65 1012.6
20260505110326 65 0.0 0.0 0.00 0.00 0.00 64 1012.7
20260505101820 62 0.0 0.0 0.00 0.00 0.00 68 1012.6
20260505101319 62 0.0 0.0 0.00 0.00 0.00 66 1012.7
20260505100818 63 0.0 0.0 0.00 0.00 0.00 67 1012.7
20260505100318 63 0.0 0.0 0.00 0.00 0.00 67 1012.6
20260505095817 64 0.0 0.0 0.00 0.00 0.00 67 1012.6
20260505095316 64 0.0 0.0 0.00 0.00 0.00 67 1012.4
20260505094815 64 0.0 0.0 0.00 0.00 0.00 67 1012.5
20260505094314 64 0.0 0.0 0.00 0.00 0.00 67 1012.5
20260505093814 62 0.0 0.0 0.00 0.00 0.00 68 1012.5
20260505093313 60 0.0 0.0 0.00 0.00 0.00 68 1012.5
20260505092812 61 0.0 0.0 0.00 0.00 0.00 67 1012.6
20260505092312 60 0.0 0.0 0.00 0.00 0.00 68 1012.6
20260505091811 60 0.0 0.0 0.00 0.00 0.00 68 1012.5
20260505091310 60 0.0 0.0 0.00 0.00 0.00 68 1012.5
20260505090810 60 0.0 0.0 0.00 0.00 0.00 68 1012.5
20260505090309 60 0.0 0.0 0.00 0.00 0.00 69 1012.4
20260505085808 60 0.0 0.0 0.00 0.00 0.00 68 1012.4
20260505085307 60 0.0 0.0 0.00 0.00 0.00 69 1012.3
20260505084807 61 0.0 0.0 0.00 0.00 0.00 69 1012.3
20260505084306 61 0.0 0.0 0.00 0.00 0.00 68 1012.3
20260505083805 60 0.0 0.0 0.00 0.00 0.00 69 1012.2
20260505083305 60 0.0 0.0 0.00 0.00 0.00 69 1012.2
20260505082804 60 0.0 0.0 0.00 0.00 0.00 69 1012.2
20260505082304 59 0.0 0.0 0.00 0.00 0.00 69 1012.3
20260505081803 59 0.0 0.0 0.00 0.00 0.00 69 1012.2
20260505081302 59 0.0 0.0 0.00 0.00 0.00 70 1012.2
20260505080801 59 0.0 0.0 0.00 0.00 0.00 70 1012.1
20260505080300 59 0.0 0.0 0.00 0.00 0.00 70 1012.1
20260505075759 59 0.0 0.0 0.00 0.00 0.00 70 1012.1
20260505075259 59 0.0 0.0 0.00 0.00 0.00 69 1012.1
20260505074758 59 0.0 0.0 0.00 0.00 0.00 70 1012.2
20260505074258 58 0.0 0.0 0.00 0.00 0.00 70 1012.2
20260505073757 59 0.0 0.0 0.00 0.00 0.00 70 1012.2
20260505073256 58 0.0 0.0 0.00 0.00 0.00 70 1012.2
20260505072755 58 0.0 0.0 0.00 0.00 0.00 71 1012.3
20260505072255 58 0.0 0.0 0.00 0.00 0.00 71 1012.3
20260505071754 57 0.0 0.0 0.00 0.00 0.00 71 1012.3
20260505071254 58 0.0 0.0 0.00 0.00 0.00 71 1012.3